FENGYUN 1C DEB, 31244

Orbit data source: Space-Track

FENGYUN 1C DEB, 31244 is space debris in SSO originally from a launch on Mon, 10 May 1999 UTC launched from the Taiyaun Space Center, China (TSC). Fengyun 1C debris stems from the Chinese weather satellite Fengyun-1C, which was intentionally destroyed by a Chinese anti-satellite missile in 2007. This event dramatically increased the amount of space debris, with thousands of trackable fragments posing hazards to satellites and human spaceflight. The Fengyun 1C debris cloud has become a focal point in discussions about space sustainability and the need for international regulations to prevent the creation of new debris.

Loading next visibility...
Identifier
31244, 1999-025BMA
Orbit
SSO
Country
Flag of CNCN / PRC
Related business
Manufacturer
Unknown
Mission
Spacecraft
Bus & Motor
Unknown
Mass
Unknown
Launch date (UTC)
1999-05-10 (27 years ago)
Launch vehicle
Unknown
Launch site
Taiyaun Space Center, China (TSC)
Object type
Payload
Rocket body
Debris
Shape & HBR
Unknown shape, 0.1 m
Radar Cross Section
Small (<0.1 m²)

Expand to show TLE details & history
Last TLE update: 2 weeks ago

TLE from 2 weeks ago
0 FENGYUN 1C DEB
1 31244U 99025BMA 26248.40561761  .00000602  00000-0  37186-3 0  9997
2 31244  99.0050 316.0461 0102431 150.4338 210.2676 14.06587887613889
Epoch: 2026-09-05T09:44Z
TLE epoch observation values (Epoch: 2026-09-05T09:44:05.361Z)
Latitude
0.00002°
Longitude
-174.4918°
Altitude
938.294 km
Speed
7.35 km/s
True Right ascension
21h 04m 11s
True Declination
0° 00' 00"
Sunlit
Object was in full shadow at epoch
Visualization orbit readout
Latitude
Unknown
Longitude
Unknown
Altitude
Unknown
Speed
Unknown
Apparent Right ascension
Unknown
Apparent Declination
Unknown
Sunlit
N/A
Visualization observer readout
Local Sidereal Time
03:12:35
Azimuth
Unknown
Elevation
Unknown
Doppler factor
Unknown
Orbital elements
Apogee altitude
942.488 km
Perigee altitude
794.036 km
Semi-major axis
7,246.399 km
Eccentricity
0.01024
Inclination
99.005°
RAAN
316.0461°
Arg. of periapsis
150.4338°
True anomaly
209.68246°
Mean anomaly
210.2676°
Eccentric anomaly
209.97438°
Mean motion
3.51852 °/min
Orbital period
102.32 mins
BSTAR
0.00037186
Loading maneuver chart data...
Computing Atmospheric mass density...

Documentation

Showing up to 5 results
|